| time (UTC) | temp C | wind direction | speed KPH | gust KPH | rain 1hr cm | rain 24hr cm | rain mn cm | humidity % | barometer mb |
| 20260504150349 | 17 | 293 | 12.9 | 17.7 | 0.00 | 0.18 | 0.18 | 74 | 1012.6 |
| 20260504140949 | 18 | 295 | 16.1 | 20.9 | 0.00 | 0.18 | 0.18 | 66 | 1012.7 |
| 20260504130649 | 21 | 265 | 6.4 | 17.7 | 0.00 | 0.18 | 0.18 | 65 | 1012.6 |
| 20260504081849 | 14 | 7 | 3.2 | 6.4 | 0.00 | 0.18 | 0.18 | 97 | 1013.7 |
| 20260504080949 | 14 | 15 | 0.0 | 3.2 | 0.00 | 0.18 | 0.18 | 97 | 1013.8 |
| 20260504050700 | 12 | 91 | 6.4 | 9.7 | 0.13 | 0.00 | 0.13 | 98 | 1013.0 |
| 20260504045800 | 12 | 82 | 6.4 | 8.0 | 0.10 | 0.00 | 0.10 | 98 | 1013.1 |
| 20260504044900 | 12 | 90 | 6.4 | 8.0 | 0.05 | 0.00 | 0.05 | 98 | 1013.2 |
| 20260504044000 | 12 | 48 | 3.2 | 6.4 | 0.05 | 0.00 | 0.05 | 98 | 1013.3 |
| 20260504043100 | 12 | 6 | 3.2 | 3.2 | 0.03 | 0.00 | 0.03 | 98 | 1013.3 |
| 20260503184609 | 14 | 1 | 0.0 | 1.6 | 0.00 | 0.00 | 0.00 | 70 | 1011.8 |
| 20260503183709 | 14 | 1 | 0.0 | 1.6 | 0.00 | 0.00 | 0.00 | 70 | 1011.8 |
| 20260503181908 | 14 | 1 | 0.0 | 1.6 | 0.00 | 0.00 | 0.00 | 70 | 1011.8 |
| 20260503181008 | 14 | 1 | 0.0 | 1.6 | 0.00 | 0.00 | 0.00 | 70 | 1011.7 |
| 20260503180108 | 14 | 347 | 0.0 | 3.2 | 0.00 | 0.00 | 0.00 | 70 | 1011.8 |
| 20260503175208 | 14 | 333 | 3.2 | 4.8 | 0.00 | 0.00 | 0.00 | 70 | 1011.6 |
| 20260503174309 | 14 | 345 | 3.2 | 6.4 | 0.00 | 0.00 | 0.00 | 70 | 1011.2 |
| 20260503173409 | 15 | 301 | 1.6 | 9.7 | 0.00 | 0.00 | 0.00 | 69 | 1010.9 |
| 20260503171608 | 15 | 307 | 6.4 | 12.9 | 0.00 | 0.00 | 0.00 | 69 | 1011.0 |
| 20260503170708 | 15 | 308 | 6.4 | 17.7 | 0.00 | 0.00 | 0.00 | 68 | 1011.0 |